sat.trackr.live / text

‹ back to catalog

STARLINK-34984

NORAD 65290 · 2025-184T

PAYLOAD ACTIVE UNKNOWN

§ Identity

Operator
Country
US
Launch date
2025-08-22
Launch site
AFWTR
Launch vehicle
Mass (kg)
RCS (m²)

Purposes: comms

External: N2YO · Heavens-Above · Gunter

§ Orbital elements

Epoch: 2026-05-25T04:43:42.647232Z

Period
95.63 min
Inclination
97.4514°
Eccentricity
0.0002433
Mean motion
15.05725151 rev/d
Perigee alt
547.6 km
Apogee alt
551.0 km
Semi-major
6,927.4 km
B*
2.5798e-3
RAAN
197.7166°
Arg perigee
119.4066°
Mean anomaly
240.7405°
Rev number
4,281

§ Raw data

STARLINK-349841 65290U 25184T   26145.19702138  .00037437  00000+0  25798-2 0  99972 65290  97.4514 197.7166 0002433 119.4066 240.7405 15.05725151 42819

JSON: /api/v1/satellites/65290 · /tle

For live sub-satellite position, see the globe view (requires WebGL).

§ Visibility from observer

Set your observer location to see the next 7 days of passes ≥ 10°. The values pass through the URL so the page stays shareable.

No JS? Fill the form by hand. The geolocation button needs JavaScript.